| time (UTC) | temp F | wind direction | speed MPH | gust MPH | rain 1hr in | rain 24hr in | rain mn in | humidity % | barometer mb |
| 20260904095524 | 49 | 2 | 0.0 | 2.0 | 0.00 | 0.01 | 0.00 | 83 | 1011.4 |
| 20260904095020 | 49 | 2 | 0.0 | 1.0 | 0.00 | 0.01 | 0.00 | 83 | 1011.3 |
| 20260904094520 | 49 | 2 | 0.0 | 1.0 | 0.00 | 0.01 | 0.00 | 83 | 1011.2 |
| 20260904094020 | 49 | 2 | 0.0 | 1.0 | 0.00 | 0.01 | 0.00 | 83 | 1011.2 |
| 20260904093521 | 48 | 2 | 0.0 | 1.0 | 0.00 | 0.01 | 0.00 | 83 | 1011.3 |
| 20260904093024 | 48 | 2 | 0.0 | 2.0 | 0.00 | 0.01 | 0.00 | 83 | 1011.3 |
| 20260904092519 | 48 | 2 | 0.0 | 2.0 | 0.00 | 0.01 | 0.00 | 83 | 1011.2 |
| 20260904092021 | 48 | 2 | 0.0 | 1.0 | 0.00 | 0.01 | 0.00 | 83 | 1011.3 |
| 20260904091522 | 49 | 2 | 0.0 | 1.0 | 0.00 | 0.01 | 0.00 | 82 | 1011.2 |
| 20260904091018 | 49 | 2 | 0.0 | 2.0 | 0.00 | 0.01 | 0.00 | 82 | 1011.3 |
| 20260904090518 | 49 | 2 | 0.0 | 1.0 | 0.00 | 0.01 | 0.00 | 82 | 1011.2 |
| 20260904090016 | 49 | 2 | 0.0 | 6.0 | 0.00 | 0.01 | 0.00 | 82 | 1011.2 |
| 20260904085517 | 49 | 4 | 2.0 | 6.0 | 0.00 | 0.01 | 0.00 | 82 | 1011.2 |
| 20260904085017 | 49 | 56 | 0.0 | 2.0 | 0.00 | 0.01 | 0.00 | 82 | 1011.2 |
| 20260904084514 | 49 | 56 | 0.0 | 2.0 | 0.00 | 0.01 | 0.00 | 81 | 1011.1 |
| 20260904084015 | 49 | 56 | 0.0 | 2.0 | 0.00 | 0.01 | 0.00 | 81 | 1011.1 |
| 20260904083513 | 49 | 56 | 0.0 | 1.0 | 0.00 | 0.01 | 0.00 | 81 | 1011.0 |
| 20260904083013 | 49 | 56 | 0.0 | 1.0 | 0.00 | 0.01 | 0.00 | 81 | 1011.0 |
| 20260904082512 | 49 | 56 | 0.0 | 2.0 | 0.00 | 0.01 | 0.00 | 81 | 1011.0 |
| 20260904082011 | 49 | 56 | 0.0 | 2.0 | 0.00 | 0.01 | 0.00 | 80 | 1010.9 |
| 20260904081511 | 50 | 56 | 0.0 | 2.0 | 0.00 | 0.01 | 0.00 | 80 | 1010.9 |
| 20260904081010 | 50 | 56 | 0.0 | 2.0 | 0.00 | 0.01 | 0.00 | 80 | 1011.0 |
| 20260904080510 | 50 | 56 | 1.0 | 2.0 | 0.00 | 0.01 | 0.00 | 80 | 1011.0 |
| 20260904080014 | 50 | 56 | 1.0 | 3.0 | 0.00 | 0.01 | 0.00 | 79 | 1011.0 |
| 20260904075509 | 50 | 56 | 1.0 | 5.0 | 0.00 | 0.01 | 0.00 | 79 | 1010.9 |
| 20260904075009 | 50 | 55 | 3.0 | 5.0 | 0.00 | 0.01 | 0.00 | 79 | 1010.9 |
| 20260904074507 | 50 | 53 | 1.0 | 2.0 | 0.00 | 0.01 | 0.00 | 79 | 1011.0 |
| 20260904074014 | 50 | 53 | 1.0 | 2.0 | 0.00 | 0.01 | 0.00 | 78 | 1011.0 |
| 20260904073507 | 51 | 53 | 0.0 | 2.0 | 0.00 | 0.01 | 0.00 | 78 | 1011.0 |
| 20260904073006 | 51 | 53 | 0.0 | 2.0 | 0.00 | 0.01 | 0.00 | 78 | 1011.0 |
| 20260904072505 | 51 | 53 | 0.0 | 2.0 | 0.00 | 0.01 | 0.00 | 78 | 1010.9 |
| 20260904072005 | 51 | 53 | 0.0 | 0.0 | 0.00 | 0.01 | 0.00 | 78 | 1010.9 |
| 20260904071507 | 51 | 53 | 0.0 | 0.0 | 0.00 | 0.01 | 0.00 | 78 | 1010.9 |
| 20260904071004 | 51 | 53 | 0.0 | 1.0 | 0.00 | 0.01 | 0.00 | 78 | 1010.9 |
| 20260904070504 | 51 | 53 | 0.0 | 1.0 | 0.00 | 0.01 | 0.00 | 78 | 1010.8 |
| 20260904070008 | 51 | 53 | 0.0 | 0.0 | 0.00 | 0.01 | 0.01 | 78 | 1010.8 |
| 20260904065503 | 51 | 53 | 0.0 | 1.0 | 0.00 | 0.01 | 0.01 | 78 | 1010.7 |
| 20260904065003 | 51 | 53 | 0.0 | 1.0 | 0.00 | 0.01 | 0.01 | 78 | 1010.7 |
| 20260904064504 | 51 | 53 | 0.0 | 3.0 | 0.00 | 0.01 | 0.01 | 78 | 1010.7 |
| 20260904064003 | 51 | 53 | 1.0 | 3.0 | 0.00 | 0.01 | 0.01 | 77 | 1010.7 |
| 20260904063503 | 51 | 53 | 1.0 | 2.0 | 0.00 | 0.01 | 0.01 | 78 | 1010.8 |
| 20260904063003 | 51 | 53 | 1.0 | 2.0 | 0.00 | 0.01 | 0.01 | 78 | 1010.7 |
| 20260904062506 | 51 | 53 | 0.0 | 2.0 | 0.00 | 0.01 | 0.01 | 78 | 1010.7 |
| 20260904062004 | 51 | 53 | 0.0 | 2.0 | 0.00 | 0.01 | 0.01 | 78 | 1010.6 |
| 20260904061506 | 52 | 53 | 0.0 | 2.0 | 0.00 | 0.01 | 0.01 | 78 | 1010.6 |
| 20260904061002 | 52 | 53 | 0.0 | 4.0 | 0.00 | 0.01 | 0.01 | 78 | 1010.6 |
| 20260904060502 | 52 | 53 | 1.0 | 4.0 | 0.00 | 0.01 | 0.01 | 77 | 1010.6 |
| 20260904060003 | 52 | 53 | 0.0 | 1.0 | 0.00 | 0.01 | 0.01 | 77 | 1010.6 |
| 20260904055503 | 52 | 53 | 0.0 | 1.0 | 0.00 | 0.01 | 0.01 | 77 | 1010.6 |
| 20260904055001 | 52 | 53 | 0.0 | 2.0 | 0.00 | 0.01 | 0.01 | 78 | 1010.6 |
| 20260904054505 | 52 | 53 | 0.0 | 2.0 | 0.00 | 0.01 | 0.01 | 77 | 1010.6 |
| 20260904054000 | 52 | 53 | 0.0 | 2.0 | 0.00 | 0.01 | 0.01 | 77 | 1010.6 |
| 20260904053501 | 52 | 53 | 0.0 | 2.0 | 0.00 | 0.01 | 0.01 | 76 | 1010.5 |
| 20260904053001 | 52 | 53 | 0.0 | 1.0 | 0.00 | 0.01 | 0.01 | 76 | 1010.5 |
| 20260904052501 | 52 | 53 | 0.0 | 5.0 | 0.00 | 0.01 | 0.01 | 76 | 1010.6 |
| 20260904052001 | 52 | 53 | 0.0 | 5.0 | 0.00 | 0.01 | 0.01 | 76 | 1010.6 |
| 20260904051501 | 52 | 4 | 0.0 | 2.0 | 0.00 | 0.01 | 0.01 | 76 | 1010.7 |
| 20260904051000 | 53 | 11 | 0.0 | 4.0 | 0.00 | 0.01 | 0.01 | 76 | 1010.6 |
| 20260904050600 | 53 | 6 | 0.0 | 4.0 | 0.00 | 0.01 | 0.01 | 75 | 1010.6 |
| 20260904050108 | 53 | 40 | 1.0 | 4.0 | 0.00 | 0.01 | 0.01 | 74 | 1010.7 |
| 20260904045600 | 53 | 46 | 0.0 | 5.0 | 0.00 | 0.01 | 0.01 | 73 | 1010.7 |
| 20260904045100 | 53 | 62 | 0.0 | 5.0 | 0.00 | 0.01 | 0.01 | 74 | 1010.7 |
| 20260904044601 | 54 | 62 | 2.0 | 4.0 | 0.00 | 0.01 | 0.01 | 74 | 1010.6 |
| 20260904044100 | 54 | 312 | 0.0 | 4.0 | 0.00 | 0.01 | 0.01 | 74 | 1010.7 |
| 20260904043601 | 54 | 312 | 1.0 | 4.0 | 0.00 | 0.01 | 0.01 | 74 | 1010.7 |
| 20260904043108 | 54 | 191 | 0.0 | 2.0 | 0.00 | 0.01 | 0.01 | 74 | 1010.6 |
| 20260904042559 | 54 | 191 | 0.0 | 6.0 | 0.00 | 0.01 | 0.01 | 74 | 1010.6 |
| 20260904042059 | 54 | 275 | 0.0 | 6.0 | 0.00 | 0.01 | 0.01 | 73 | 1010.6 |
| 20260904041559 | 55 | 357 | 0.0 | 5.0 | 0.00 | 0.01 | 0.01 | 73 | 1010.5 |
| 20260904041058 | 55 | 49 | 0.0 | 5.0 | 0.00 | 0.01 | 0.01 | 73 | 1010.5 |
| 20260904040558 | 55 | 50 | 2.0 | 5.0 | 0.00 | 0.01 | 0.01 | 73 | 1010.6 |
| 20260904040058 | 55 | 358 | 1.0 | 5.0 | 0.00 | 0.01 | 0.01 | 74 | 1010.6 |
| 20260904035558 | 54 | 340 | 0.0 | 3.0 | 0.00 | 0.01 | 0.01 | 74 | 1010.7 |
| 20260904035057 | 55 | 339 | 0.0 | 2.0 | 0.00 | 0.01 | 0.01 | 74 | 1010.7 |
| 20260904034558 | 55 | 339 | 0.0 | 2.0 | 0.00 | 0.01 | 0.01 | 73 | 1010.7 |
| 20260904034057 | 55 | 339 | 0.0 | 1.0 | 0.00 | 0.01 | 0.01 | 73 | 1010.6 |
| 20260904033558 | 55 | 339 | 0.0 | 2.0 | 0.00 | 0.01 | 0.01 | 72 | 1010.6 |
| 20260904033056 | 56 | 339 | 0.0 | 4.0 | 0.00 | 0.01 | 0.01 | 71 | 1010.5 |
| 20260904032557 | 56 | 339 | 0.0 | 4.0 | 0.00 | 0.01 | 0.01 | 72 | 1010.4 |
| 20260904032056 | 56 | 275 | 0.0 | 3.0 | 0.00 | 0.01 | 0.01 | 73 | 1010.3 |
| 20260904031557 | 56 | 275 | 0.0 | 7.0 | 0.00 | 0.01 | 0.01 | 73 | 1010.3 |
| 20260904031058 | 57 | 275 | 2.0 | 7.0 | 0.00 | 0.01 | 0.01 | 73 | 1010.3 |
| 20260904030556 | 57 | 191 | 1.0 | 6.0 | 0.00 | 0.01 | 0.01 | 73 | 1010.2 |
| 20260904030107 | 57 | 277 | 3.0 | 6.0 | 0.00 | 0.03 | 0.01 | 73 | 1010.2 |
| 20260904025557 | 57 | 276 | 1.0 | 6.0 | 0.00 | 0.03 | 0.01 | 72 | 1010.2 |
| 20260904025056 | 58 | 320 | 0.0 | 8.0 | 0.00 | 0.03 | 0.01 | 70 | 1010.2 |
| 20260904024556 | 58 | 9 | 1.0 | 8.0 | 0.00 | 0.03 | 0.01 | 69 | 1010.2 |
| 20260904024057 | 58 | 264 | 0.0 | 8.0 | 0.00 | 0.03 | 0.01 | 70 | 1010.1 |
| 20260904023554 | 57 | 308 | 1.0 | 3.0 | 0.00 | 0.03 | 0.01 | 70 | 1010.0 |
| 20260904023055 | 58 | 191 | 0.0 | 3.0 | 0.00 | 0.03 | 0.01 | 69 | 1010.0 |
| 20260904022555 | 58 | 191 | 0.0 | 3.0 | 0.00 | 0.03 | 0.01 | 70 | 1010.0 |
| 20260904022055 | 58 | 191 | 0.0 | 3.0 | 0.00 | 0.03 | 0.01 | 70 | 1010.0 |
| 20260904021557 | 58 | 191 | 0.0 | 4.0 | 0.00 | 0.03 | 0.01 | 70 | 1010.0 |
| 20260904021054 | 58 | 312 | 0.0 | 4.0 | 0.00 | 0.03 | 0.01 | 70 | 1010.0 |
| 20260904020554 | 57 | 262 | 0.0 | 2.0 | 0.00 | 0.03 | 0.01 | 71 | 1010.0 |
| 20260904020054 | 58 | 262 | 0.0 | 3.0 | 0.00 | 0.08 | 0.01 | 70 | 1010.0 |
| 20260904015554 | 58 | 260 | 0.0 | 2.0 | 0.00 | 0.08 | 0.01 | 70 | 1009.9 |
| 20260904015054 | 58 | 258 | 0.0 | 2.0 | 0.00 | 0.08 | 0.01 | 71 | 1009.9 |
| 20260904014608 | 58 | 258 | 0.0 | 2.0 | 0.00 | 0.08 | 0.01 | 72 | 1009.9 |
| 20260904014052 | 58 | 258 | 0.0 | 3.0 | 0.00 | 0.08 | 0.01 | 71 | 1009.9 |
| 20260904013553 | 58 | 258 | 0.0 | 4.0 | 0.00 | 0.08 | 0.01 | 69 | 1009.8 |
| 20260904013053 | 58 | 258 | 1.0 | 5.0 | 0.00 | 0.08 | 0.01 | 70 | 1009.8 |
| 20260904012556 | 59 | 268 | 1.0 | 9.0 | 0.00 | 0.08 | 0.01 | 68 | 1009.9 |
| 20260904012055 | 59 | 274 | 2.0 | 10.0 | 0.00 | 0.08 | 0.01 | 68 | 1009.8 |
| 20260904011553 | 59 | 302 | 2.0 | 8.0 | 0.00 | 0.08 | 0.01 | 68 | 1009.8 |
| 20260904011052 | 59 | 261 | 1.0 | 7.0 | 0.00 | 0.08 | 0.01 | 67 | 1009.8 |
| 20260904010552 | 59 | 271 | 3.0 | 7.0 | 0.00 | 0.08 | 0.01 | 66 | 1009.8 |
| 20260904010052 | 60 | 279 | 3.0 | 11.0 | 0.00 | 0.12 | 0.01 | 67 | 1009.8 |
| 20260904005553 | 60 | 191 | 5.0 | 11.0 | 0.00 | 0.12 | 0.01 | 67 | 1009.8 |
| 20260904005051 | 60 | 246 | 4.0 | 12.0 | 0.00 | 0.12 | 0.01 | 67 | 1009.8 |
| 20260904004551 | 61 | 253 | 3.0 | 13.0 | 0.00 | 0.12 | 0.01 | 66 | 1009.7 |
| 20260904004056 | 61 | 254 | 3.0 | 13.0 | 0.00 | 0.12 | 0.01 | 67 | 1009.8 |
| 20260904003551 | 63 | 223 | 4.0 | 7.0 | 0.00 | 0.12 | 0.01 | 63 | 1009.7 |
| 20260904003050 | 63 | 213 | 4.0 | 5.0 | 0.00 | 0.12 | 0.01 | 65 | 1009.7 |
| 20260904002553 | 62 | 237 | 1.0 | 5.0 | 0.00 | 0.12 | 0.01 | 64 | 1009.6 |
| 20260904002051 | 62 | 237 | 1.0 | 5.0 | 0.00 | 0.12 | 0.01 | 63 | 1009.7 |
| 20260904001553 | 62 | 244 | 1.0 | 5.0 | 0.00 | 0.12 | 0.01 | 64 | 1009.7 |
| 20260904001051 | 62 | 233 | 1.0 | 7.0 | 0.00 | 0.12 | 0.01 | 64 | 1009.7 |
| 20260904000553 | 62 | 248 | 1.0 | 7.0 | 0.00 | 0.12 | 0.01 | 68 | 1009.7 |
| 20260904000051 | 60 | 257 | 1.0 | 8.0 | 0.00 | 0.14 | 0.01 | 71 | 1009.7 |
| 20260903235553 | 60 | 240 | 2.0 | 8.0 | 0.00 | 0.14 | 0.01 | 72 | 1009.8 |
| 20260903235050 | 59 | 191 | 2.0 | 6.0 | 0.00 | 0.14 | 0.01 | 73 | 1009.9 |
| 20260903234550 | 59 | 191 | 1.0 | 9.0 | 0.00 | 0.14 | 0.01 | 70 | 1009.8 |
| 20260903234050 | 60 | 219 | 4.0 | 9.0 | 0.00 | 0.14 | 0.01 | 69 | 1009.8 |
| 20260903233550 | 60 | 191 | 1.0 | 10.0 | 0.00 | 0.14 | 0.01 | 63 | 1009.8 |
| 20260903233051 | 60 | 275 | 3.0 | 9.0 | 0.00 | 0.14 | 0.01 | 64 | 1009.9 |
| 20260903232550 | 60 | 191 | 1.0 | 8.0 | 0.00 | 0.14 | 0.01 | 63 | 1009.9 |
| 20260903232052 | 61 | 250 | 3.0 | 9.0 | 0.00 | 0.14 | 0.01 | 63 | 1009.9 |
| 20260903231600 | 61 | 259 | 2.0 | 10.0 | 0.00 | 0.14 | 0.01 | 63 | 1010.0 |
| 20260903231049 | 61 | 191 | 2.0 | 10.0 | 0.00 | 0.14 | 0.01 | 63 | 1010.0 |
| 20260903230549 | 61 | 308 | 1.0 | 9.0 | 0.00 | 0.14 | 0.01 | 61 | 1010.0 |
| 20260903230052 | 61 | 350 | 4.0 | 13.0 | 0.00 | 0.15 | 0.01 | 64 | 1010.0 |
| 20260903225549 | 62 | 267 | 6.0 | 16.0 | 0.00 | 0.15 | 0.01 | 62 | 1010.1 |
| 20260903225048 | 64 | 191 | 8.0 | 16.0 | 0.00 | 0.15 | 0.01 | 61 | 1010.0 |
| 20260903224548 | 64 | 253 | 5.0 | 12.0 | 0.00 | 0.15 | 0.01 | 58 | 1009.9 |
| 20260903224048 | 64 | 191 | 2.0 | 12.0 | 0.00 | 0.15 | 0.01 | 60 | 1009.9 |
| 20260903223548 | 64 | 275 | 3.0 | 14.0 | 0.00 | 0.15 | 0.01 | 60 | 1009.9 |
| 20260903223048 | 64 | 191 | 7.0 | 18.0 | 0.00 | 0.15 | 0.01 | 60 | 1009.9 |
| 20260903222552 | 65 | 252 | 8.0 | 17.0 | 0.00 | 0.15 | 0.01 | 59 | 1009.8 |
| 20260903222049 | 66 | 273 | 5.0 | 17.0 | 0.00 | 0.15 | 0.01 | 57 | 1009.8 |
| 20260903221548 | 65 | 242 | 9.0 | 16.0 | 0.00 | 0.15 | 0.01 | 57 | 1009.8 |
| 20260903221047 | 64 | 263 | 10.0 | 18.0 | 0.00 | 0.15 | 0.01 | 60 | 1009.8 |
| 20260903220547 | 64 | 244 | 8.0 | 21.0 | 0.00 | 0.15 | 0.01 | 59 | 1009.8 |
| 20260903220053 | 65 | 242 | 9.0 | 21.0 | 0.00 | 0.19 | 0.01 | 56 | 1009.8 |
| 20260903215548 | 66 | 237 | 5.0 | 23.0 | 0.00 | 0.19 | 0.01 | 54 | 1009.9 |
| 20260903215046 | 66 | 253 | 11.0 | 24.0 | 0.00 | 0.19 | 0.01 | 58 | 1009.8 |
| 20260903214547 | 66 | 246 | 6.0 | 25.0 | 0.00 | 0.19 | 0.01 | 53 | 1009.8 |
| 20260903214046 | 67 | 229 | 12.0 | 20.0 | 0.00 | 0.19 | 0.01 | 55 | 1009.7 |
| 20260903213548 | 67 | 241 | 14.0 | 23.0 | 0.00 | 0.19 | 0.01 | 54 | 1009.6 |
| 20260903213046 | 68 | 310 | 11.0 | 23.0 | 0.00 | 0.19 | 0.01 | 53 | 1009.7 |
| 20260903212546 | 68 | 275 | 9.0 | 16.0 | 0.00 | 0.19 | 0.01 | 54 | 1009.7 |
| 20260903212046 | 65 | 267 | 5.0 | 11.0 | 0.00 | 0.19 | 0.01 | 58 | 1009.7 |
| 20260903211551 | 67 | 244 | 6.0 | 11.0 | 0.00 | 0.19 | 0.01 | 53 | 1009.8 |
| 20260903211046 | 70 | 235 | 7.0 | 10.0 | 0.00 | 0.19 | 0.01 | 48 | 1009.7 |
| 20260903210545 | 71 | 235 | 6.0 | 9.0 | 0.00 | 0.19 | 0.01 | 47 | 1009.7 |
| 20260903210046 | 71 | 233 | 5.0 | 9.0 | 0.00 | 0.21 | 0.01 | 49 | 1009.7 |
| 20260903205543 | 70 | 242 | 6.0 | 9.0 | 0.00 | 0.21 | 0.01 | 51 | 1009.8 |
| 20260903205043 | 71 | 240 | 6.0 | 8.0 | 0.00 | 0.21 | 0.01 | 51 | 1009.8 |
| 20260903204543 | 70 | 236 | 6.0 | 9.0 | 0.00 | 0.21 | 0.01 | 54 | 1009.7 |
| 20260903204043 | 67 | 240 | 4.0 | 7.0 | 0.00 | 0.21 | 0.01 | 58 | 1009.7 |
| 20260903203542 | 67 | 240 | 4.0 | 7.0 | 0.00 | 0.21 | 0.01 | 56 | 1009.9 |
| 20260903203042 | 67 | 239 | 5.0 | 7.0 | 0.00 | 0.21 | 0.01 | 54 | 1009.9 |
| 20260903202546 | 68 | 236 | 4.0 | 7.0 | 0.00 | 0.21 | 0.01 | 56 | 1009.9 |
| 20260903202042 | 68 | 237 | 4.0 | 7.0 | 0.00 | 0.21 | 0.01 | 52 | 1010.0 |
| 20260903201541 | 71 | 239 | 5.0 | 9.0 | 0.00 | 0.21 | 0.01 | 52 | 1010.1 |
| 20260903201042 | 70 | 231 | 5.0 | 8.0 | 0.00 | 0.21 | 0.01 | 53 | 1010.1 |
| 20260903200540 | 70 | 246 | 5.0 | 8.0 | 0.00 | 0.21 | 0.01 | 56 | 1010.2 |
| 20260903200041 | 69 | 232 | 4.0 | 8.0 | 0.00 | 0.22 | 0.01 | 54 | 1010.3 |
| 20260903195542 | 71 | 232 | 5.0 | 8.0 | 0.00 | 0.22 | 0.01 | 49 | 1010.3 |
| 20260903195039 | 69 | 204 | 4.0 | 7.0 | 0.00 | 0.22 | 0.01 | 58 | 1010.4 |
| 20260903194536 | 65 | 232 | 4.0 | 7.0 | 0.00 | 0.22 | 0.01 | 60 | 1010.5 |
| 20260903194039 | 66 | 232 | 4.0 | 7.0 | 0.00 | 0.22 | 0.01 | 57 | 1010.6 |
| 20260903193535 | 65 | 233 | 4.0 | 7.0 | 0.00 | 0.22 | 0.01 | 61 | 1010.6 |
| 20260903193035 | 64 | 227 | 3.0 | 6.0 | 0.00 | 0.22 | 0.01 | 60 | 1010.7 |
| 20260903192534 | 64 | 225 | 3.0 | 5.0 | 0.00 | 0.22 | 0.01 | 60 | 1010.8 |
| 20260903192037 | 63 | 223 | 3.0 | 5.0 | 0.00 | 0.22 | 0.01 | 69 | 1010.8 |
| 20260903191547 | 63 | 223 | 2.0 | 5.0 | 0.00 | 0.22 | 0.01 | 66 | 1010.9 |
| 20260903191035 | 64 | 223 | 2.0 | 5.0 | 0.00 | 0.22 | 0.01 | 67 | 1011.0 |
| 20260903190534 | 65 | 223 | 3.0 | 5.0 | 0.00 | 0.22 | 0.01 | 71 | 1011.0 |
| 20260903190034 | 63 | 208 | 1.0 | 5.0 | 0.00 | 0.22 | 0.01 | 72 | 1011.1 |
| 20260903185533 | 65 | 204 | 3.0 | 6.0 | 0.00 | 0.22 | 0.01 | 62 | 1011.2 |
| 20260903185033 | 65 | 191 | 4.0 | 6.0 | 0.00 | 0.22 | 0.01 | 68 | 1011.3 |
| 20260903184541 | 66 | 209 | 4.0 | 6.0 | 0.00 | 0.22 | 0.01 | 68 | 1011.2 |
| 20260903184033 | 65 | 181 | 4.0 | 6.0 | 0.00 | 0.22 | 0.01 | 63 | 1011.2 |
| 20260903183530 | 66 | 162 | 3.0 | 7.0 | 0.00 | 0.22 | 0.01 | 71 | 1011.3 |
| 20260903183030 | 65 | 186 | 5.0 | 8.0 | 0.00 | 0.22 | 0.01 | 73 | 1011.3 |
| 20260903182531 | 65 | 181 | 4.0 | 7.0 | 0.00 | 0.22 | 0.01 | 75 | 1011.2 |
| 20260903182027 | 64 | 186 | 3.0 | 6.0 | 0.00 | 0.22 | 0.01 | 75 | 1011.3 |
| 20260903181526 | 62 | 168 | 1.0 | 5.0 | 0.00 | 0.22 | 0.01 | 76 | 1011.3 |
| 20260903181024 | 60 | 85 | 1.0 | 4.0 | 0.00 | 0.22 | 0.01 | 76 | 1011.3 |
| 20260903180523 | 59 | 333 | 0.0 | 4.0 | 0.00 | 0.22 | 0.01 | 79 | 1011.4 |
| 20260903180029 | 58 | 76 | 0.0 | 5.0 | 0.00 | 0.22 | 0.01 | 78 | 1011.4 |
| 20260903175521 | 57 | 11 | 1.0 | 5.0 | 0.00 | 0.22 | 0.01 | 78 | 1011.4 |
| 20260903175020 | 58 | 349 | 1.0 | 5.0 | 0.00 | 0.22 | 0.01 | 83 | 1011.4 |
| 20260903174518 | 57 | 63 | 0.0 | 5.0 | 0.00 | 0.22 | 0.01 | 84 | 1011.5 |
| 20260903174018 | 56 | 44 | 0.0 | 2.0 | 0.00 | 0.22 | 0.01 | 84 | 1011.5 |
| 20260903173516 | 55 | 44 | 1.0 | 2.0 | 0.00 | 0.22 | 0.01 | 83 | 1011.6 |
| 20260903173019 | 55 | 64 | 0.0 | 4.0 | 0.00 | 0.22 | 0.01 | 84 | 1011.6 |
| 20260903172518 | 54 | 64 | 0.0 | 5.0 | 0.00 | 0.22 | 0.01 | 85 | 1011.6 |
| 20260903172013 | 54 | 66 | 2.0 | 5.0 | 0.00 | 0.22 | 0.01 | 85 | 1011.6 |
| 20260903171511 | 54 | 73 | 0.0 | 6.0 | 0.00 | 0.22 | 0.01 | 85 | 1011.7 |
| 20260903171011 | 54 | 65 | 3.0 | 6.0 | 0.00 | 0.22 | 0.01 | 86 | 1011.7 |
| 20260903170510 | 53 | 53 | 0.0 | 4.0 | 0.00 | 0.22 | 0.01 | 86 | 1011.8 |
| 20260903170010 | 53 | 49 | 2.0 | 4.0 | 0.00 | 0.22 | 0.01 | 86 | 1011.8 |
| 20260903165507 | 53 | 18 | 0.0 | 2.0 | 0.00 | 0.22 | 0.01 | 86 | 1011.8 |
| 20260903165005 | 53 | 18 | 1.0 | 3.0 | 0.00 | 0.22 | 0.01 | 86 | 1012.0 |
| 20260903164506 | 53 | 18 | 0.0 | 3.0 | 0.00 | 0.22 | 0.01 | 86 | 1011.8 |
| 20260903164006 | 52 | 344 | 0.0 | 2.0 | 0.00 | 0.22 | 0.01 | 85 | 1011.8 |
| 20260903163507 | 52 | 59 | 0.0 | 2.0 | 0.00 | 0.22 | 0.01 | 86 | 1011.5 |
| 20260903163006 | 52 | 60 | 0.0 | 3.0 | 0.00 | 0.22 | 0.01 | 86 | 1011.7 |
| 20260903162507 | 52 | 60 | 0.0 | 3.0 | 0.00 | 0.22 | 0.01 | 86 | 1011.5 |
| 20260903162004 | 52 | 58 | 0.0 | 3.0 | 0.00 | 0.22 | 0.01 | 86 | 1011.5 |
| 20260903161504 | 52 | 58 | 0.0 | 4.0 | 0.00 | 0.22 | 0.01 | 86 | 1011.6 |
| 20260903161003 | 52 | 67 | 1.0 | 4.0 | 0.00 | 0.22 | 0.01 | 86 | 1011.7 |
| 20260903160504 | 52 | 51 | 0.0 | 1.0 | 0.00 | 0.22 | 0.01 | 86 | 1011.7 |
| 20260903160003 | 52 | 52 | 0.0 | 4.0 | 0.00 | 0.22 | 0.01 | 86 | 1011.7 |
| 20260903155505 | 52 | 348 | 0.0 | 3.0 | 0.00 | 0.22 | 0.01 | 86 | 1011.7 |
| 20260903155002 | 52 | 348 | 1.0 | 3.0 | 0.00 | 0.22 | 0.01 | 86 | 1011.8 |
| 20260903154502 | 52 | 348 | 0.0 | 1.0 | 0.00 | 0.22 | 0.01 | 86 | 1011.7 |
| 20260903154002 | 52 | 348 | 0.0 | 1.0 | 0.00 | 0.22 | 0.01 | 87 | 1011.7 |
| 20260903153501 | 52 | 348 | 0.0 | 2.0 | 0.00 | 0.22 | 0.01 | 86 | 1011.7 |
| 20260903153100 | 51 | 348 | 0.0 | 3.0 | 0.00 | 0.22 | 0.01 | 86 | 1011.7 |
| 20260903152600 | 51 | 348 | 0.0 | 3.0 | 0.00 | 0.22 | 0.01 | 86 | 1011.8 |
| 20260903152103 | 51 | 231 | 0.0 | 1.0 | 0.00 | 0.22 | 0.01 | 86 | 1011.8 |
| 20260903151600 | 51 | 231 | 0.0 | 1.0 | 0.00 | 0.22 | 0.01 | 86 | 1011.8 |
| 20260903151100 | 51 | 231 | 0.0 | 2.0 | 0.00 | 0.22 | 0.01 | 86 | 1011.9 |
| 20260903150559 | 51 | 231 | 0.0 | 2.0 | 0.00 | 0.22 | 0.01 | 86 | 1011.9 |
| 20260903150059 | 51 | 231 | 0.0 | 2.0 | 0.00 | 0.22 | 0.01 | 86 | 1011.8 |
| 20260903145559 | 51 | 231 | 0.0 | 2.0 | 0.00 | 0.22 | 0.01 | 86 | 1011.8 |
| 20260903145057 | 51 | 231 | 0.0 | 0.0 | 0.00 | 0.22 | 0.01 | 86 | 1011.7 |
| 20260903144557 | 51 | 231 | 0.0 | 0.0 | 0.00 | 0.22 | 0.01 | 87 | 1011.7 |
| 20260903144057 | 51 | 231 | 0.0 | 0.0 | 0.00 | 0.22 | 0.01 | 87 | 1011.6 |
| 20260903143556 | 51 | 231 | 0.0 | 0.0 | 0.00 | 0.22 | 0.01 | 87 | 1011.7 |
| 20260903143108 | 51 | 231 | 0.0 | 1.0 | 0.00 | 0.22 | 0.01 | 87 | 1011.6 |
| 20260903142555 | 51 | 231 | 0.0 | 1.0 | 0.00 | 0.22 | 0.01 | 87 | 1011.6 |
| 20260903142057 | 51 | 231 | 0.0 | 1.0 | 0.00 | 0.22 | 0.01 | 87 | 1011.5 |
| 20260903141553 | 51 | 231 | 0.0 | 0.0 | 0.00 | 0.22 | 0.01 | 86 | 1011.5 |
| 20260903141053 | 51 | 231 | 0.0 | 0.0 | 0.00 | 0.22 | 0.01 | 87 | 1011.5 |
| 20260903140552 | 50 | 231 | 0.0 | 1.0 | 0.00 | 0.22 | 0.01 | 86 | 1011.5 |
| 20260903140052 | 51 | 231 | 0.0 | 1.0 | 0.00 | 0.22 | 0.01 | 86 | 1011.4 |
| 20260903135550 | 51 | 231 | 0.0 | 1.0 | 0.00 | 0.22 | 0.01 | 86 | 1011.4 |
| 20260903135050 | 51 | 70 | 0.0 | 2.0 | 0.00 | 0.22 | 0.01 | 86 | 1011.3 |
| 20260903134548 | 50 | 70 | 0.0 | 2.0 | 0.00 | 0.22 | 0.01 | 86 | 1011.3 |
| 20260903134048 | 51 | 70 | 0.0 | 2.0 | 0.00 | 0.22 | 0.01 | 86 | 1011.3 |
| 20260903133548 | 51 | 70 | 0.0 | 3.0 | 0.00 | 0.22 | 0.01 | 86 | 1011.2 |
| 20260903133049 | 51 | 70 | 0.0 | 3.0 | 0.00 | 0.22 | 0.01 | 86 | 1011.1 |
| 20260903132546 | 51 | 70 | 1.0 | 4.0 | 0.00 | 0.22 | 0.01 | 86 | 1011.1 |
| 20260903132046 | 50 | 75 | 1.0 | 3.0 | 0.00 | 0.22 | 0.01 | 86 | 1011.1 |
| 20260903131604 | 50 | 75 | 0.0 | 3.0 | 0.00 | 0.22 | 0.01 | 86 | 1011.1 |
| 20260903131046 | 50 | 75 | 0.0 | 3.0 | 0.00 | 0.22 | 0.01 | 86 | 1011.0 |
| 20260903130550 | 51 | 150 | 0.0 | 2.0 | 0.00 | 0.22 | 0.01 | 86 | 1010.9 |
| 20260903130049 | 51 | 150 | 0.0 | 0.0 | 0.00 | 0.22 | 0.01 | 86 | 1010.9 |
| 20260903125546 | 51 | 150 | 0.0 | 1.0 | 0.00 | 0.22 | 0.01 | 86 | 1010.8 |
| 20260903125046 | 51 | 150 | 0.0 | 0.0 | 0.00 | 0.22 | 0.01 | 86 | 1010.9 |
| 20260903124546 | 51 | 150 | 0.0 | 1.0 | 0.00 | 0.22 | 0.01 | 86 | 1011.0 |
| 20260903124048 | 50 | 150 | 0.0 | 2.0 | 0.00 | 0.22 | 0.01 | 86 | 1010.9 |
| 20260903123546 | 50 | 150 | 0.0 | 2.0 | 0.00 | 0.22 | 0.01 | 86 | 1011.0 |
| 20260903123048 | 50 | 150 | 0.0 | 2.0 | 0.00 | 0.22 | 0.01 | 86 | 1011.0 |
| 20260903122543 | 50 | 150 | 0.0 | 2.0 | 0.00 | 0.22 | 0.01 | 86 | 1011.0 |
| 20260903122043 | 51 | 150 | 0.0 | 2.0 | 0.00 | 0.22 | 0.01 | 86 | 1011.0 |
| 20260903121543 | 51 | 150 | 0.0 | 2.0 | 0.00 | 0.22 | 0.01 | 86 | 1011.0 |
| 20260903121043 | 51 | 150 | 0.0 | 4.0 | 0.00 | 0.22 | 0.01 | 87 | 1011.0 |
| 20260903120545 | 51 | 152 | 1.0 | 3.0 | 0.00 | 0.22 | 0.01 | 86 | 1011.1 |
| 20260903120042 | 51 | 66 | 0.0 | 5.0 | 0.00 | 0.22 | 0.01 | 86 | 1011.0 |
| 20260903115541 | 51 | 64 | 3.0 | 5.0 | 0.00 | 0.22 | 0.01 | 86 | 1010.9 |
| 20260903115044 | 51 | 63 | 1.0 | 4.0 | 0.00 | 0.22 | 0.01 | 86 | 1011.0 |
| 20260903114540 | 51 | 62 | 0.0 | 3.0 | 0.00 | 0.22 | 0.01 | 86 | 1010.9 |
| 20260903114039 | 51 | 9 | 0.0 | 2.0 | 0.00 | 0.22 | 0.01 | 86 | 1010.9 |
| 20260903113539 | 51 | 9 | 0.0 | 2.0 | 0.00 | 0.22 | 0.01 | 86 | 1010.8 |
| 20260903113042 | 51 | 9 | 0.0 | 2.0 | 0.00 | 0.22 | 0.01 | 86 | 1010.9 |
| 20260903112542 | 51 | 51 | 0.0 | 2.0 | 0.00 | 0.22 | 0.01 | 86 | 1010.9 |
| 20260903112037 | 51 | 51 | 0.0 | 0.0 | 0.00 | 0.22 | 0.01 | 86 | 1010.8 |
| 20260903111536 | 51 | 51 | 0.0 | 1.0 | 0.00 | 0.22 | 0.01 | 86 | 1010.6 |
| 20260903111038 | 51 | 51 | 0.0 | 1.0 | 0.00 | 0.22 | 0.01 | 86 | 1010.6 |
| 20260903110535 | 51 | 51 | 0.0 | 1.0 | 0.00 | 0.22 | 0.01 | 86 | 1010.6 |
| 20260903110036 | 51 | 51 | 0.0 | 2.0 | 0.00 | 0.22 | 0.01 | 86 | 1010.7 |
| 20260903105534 | 51 | 51 | 0.0 | 2.0 | 0.01 | 0.22 | 0.01 | 86 | 1010.6 |
| 20260903105034 | 52 | 51 | 0.0 | 1.0 | 0.01 | 0.22 | 0.01 | 86 | 1010.6 |
| 20260903104533 | 52 | 51 | 0.0 | 1.0 | 0.01 | 0.22 | 0.01 | 86 | 1010.6 |
| 20260903104032 | 52 | 51 | 0.0 | 1.0 | 0.01 | 0.22 | 0.01 | 86 | 1010.5 |
| 20260903103532 | 52 | 51 | 0.0 | 1.0 | 0.01 | 0.22 | 0.01 | 86 | 1010.4 |
| 20260903103032 | 52 | 51 | 0.0 | 1.0 | 0.01 | 0.22 | 0.01 | 86 | 1010.4 |
| 20260903102535 | 52 | 51 | 0.0 | 1.0 | 0.01 | 0.22 | 0.01 | 86 | 1010.3 |
| 20260903102032 | 52 | 51 | 0.0 | 1.0 | 0.01 | 0.22 | 0.01 | 86 | 1010.4 |
| 20260903101531 | 52 | 51 | 0.0 | 1.0 | 0.01 | 0.22 | 0.01 | 86 | 1010.4 |
| 20260903101031 | 52 | 51 | 0.0 | 1.0 | 0.01 | 0.22 | 0.01 | 86 | 1010.4 |
| 20260903100531 | 52 | 51 | 0.0 | 1.0 | 0.01 | 0.22 | 0.01 | 86 | 1010.4 |
| 20260903100031 | 52 | 51 | 0.0 | 1.0 | 0.01 | 0.22 | 0.01 | 86 | 1010.3 |